Wind_Speed
45 44 43 41 41 41 41 41 40 39 38 38 37 34 33 33 32 30 30 29 29 28 27 27 26 26 25 25 25 25 26 26 26 26 26 27 27 28 29 29 29 30 30 30
46 45 42 42 43 42 42 41 40 40 40 40 39 37 35 35 34 32 31 31 30 29 29 28 27 27 27 26 26 27 27 27 27 27 27 28 29 29 29 30 30 30 30 30
46 45 43 44 43 43 43 41 40 40 41 41 41 39 37 36 36 34 33 32 31 30 30 29 29 28 28 28 28 28 28 28 28 28 28 29 29 30 30 30 31 31 31 31
46 45 45 45 44 43 43 41 41 41 42 42 42 42 38 37 37 36 34 33 33 31 31 30 30 29 29 29 29 28 28 28 28 29 29 30 30 31 31 31 31 31 32 33
45 45 45 45 44 43 42 41 42 42 43 44 43 44 39 38 38 37 36 35 34 33 32 31 31 30 30 30 30 29 29 29 29 30 30 30 30 31 31 31 32 32 33 33
46 45 45 45 43 43 43 42 42 43 43 45 43 44 42 38 38 37 36 36 35 34 33 32 32 31 31 31 30 30 30 30 30 30 30 31 31 31 31 32 32 33 33 34
46 47 46 45 45 45 44 42 43 44 45 46 43 44 43 38 37 37 36 36 35 34 33 33 32 32 32 31 31 31 31 31 30 30 31 30 30 31 31 32 33 33 34 34
47 47 47 46 45 45 44 44 44 44 45 45 43 44 41 38 36 36 35 35 35 35 34 34 34 33 33 32 31 31 31 31 31 31 31 30 31 31 32 32 33 34 34 35
47 47 46 46 45 46 46 46 43 44 45 45 45 42 40 38 36 35 35 35 35 35 35 35 35 34 33 33 32 32 31 31 31 31 31 31 31 32 32 33 34 35 36 36
46 47 46 46 46 47 46 45 45 45 45 45 45 42 39 37 36 36 36 36 36 36 36 36 36 35 34 34 33 33 32 31 31 31 31 31 32 32 33 34 35 36 37 37
46 46 45 46 47 45 45 46 46 46 46 45 45 43 38 36 36 36 36 36 36 36 36 36 36 35 34 34 34 33 33 32 32 32 32 32 33 33 34 35 36 36 37 38
45 46 45 45 46 46 47 46 46 46 46 46 45 43 38 36 36 36 36 36 36 36 36 36 35 34 34 34 34 34 33 33 33 33 33 33 34 34 35 36 37 37 38 39
44 46 45 45 45 46 48 48 48 47 47 46 46 42 38 37 36 36 37 37 36 36 35 35 35 35 35 35 35 35 34 34 34 34 34 34 35 35 36 37 38 39 39 40
42 44 45 44 45 45 46 47 48 48 49 48 44 41 38 37 36 37 38 37 36 35 35 35 36 36 35 35 36 36 35 35 35 35 35 36 36 36 37 38 39 39 40 41
42 43 43 44 43 44 45 46 47 49 48 48 44 41 37 37 37 37 38 38 37 36 35 35 36 36 36 36 36 36 36 36 36 36 37 37 37 37 38 39 39 40 41 41
42 43 44 44 45 45 46 47 48 47 46 46 46 42 37 38 39 39 38 38 38 37 36 35 36 36 36 36 36 36 36 36 37 37 38 38 38 38 39 40 40 41 41 42
43 42 44 45 45 47 47 44 45 46 45 46 46 41 40 41 40 39 39 39 38 37 36 36 35 36 36 37 37 37 37 37 38 38 39 39 39 40 40 41 41 41 42 43
43 43 44 45 46 48 45 42 42 43 43 44 45 43 42 42 41 40 39 39 39 38 38 37 36 36 37 38 39 39 39 38 39 39 39 40 41 41 41 41 42 43 43 44
43 43 44 44 47 48 46 42 41 42 43 42 43 42 42 42 43 41 39 39 38 38 38 38 38 38 38 39 39 40 39 39 39 40 40 41 42 42 42 43 43 44 45 45
43 44 45 44 45 45 41 40 40 42 42 39 40 41 41 42 43 40 40 39 39 38 39 40 40 39 39 39 39 39 39 39 39 40 41 41 42 43 43 43 44 45 45 46
42 45 47 46 46 44 39 39 39 41 39 37 38 39 39 40 40 39 41 41 40 40 40 40 40 40 40 39 39 39 39 39 40 41 41 42 43 43 43 44 45 45 46 47
42 44 46 46 47 43 37 39 39 38 37 38 39 39 39 39 38 39 40 41 41 41 41 41 40 40 40 39 39 39 39 40 41 41 42 43 43 43 43 44 45 46 46 47
42 42 43 45 45 41 39 38 37 38 39 39 38 38 39 38 38 38 39 40 40 41 41 40 40 39 39 39 39 39 40 40 41 41 42 43 43 44 44 45 46 46 47 48
39 40 43 44 43 42 39 38 38 39 39 39 38 37 38 38 37 37 38 38 39 39 39 39 39 39 38 39 39 40 40 41 41 42 42 43 44 44 45 45 46 47 48 49
42 43 43 43 41 41 41 40 39 40 39 39 39 38 37 37 37 38 38 38 38 38 38 39 39 39 39 39 40 40 40 41 41 42 43 44 44 44 45 45 46 48 49 50
41 43 42 40 39 41 40 41 42 41 41 40 39 38 38 38 38 38 38 38 37 38 38 39 40 41 40 40 40 40 41 41 42 43 43 44 44 45 45 46 47 48 49 50
Wind_Direction
235 235 235 236 238 239 240 241 243 244 246 247 247 246 248 251 251 252 253 256 258 260 263 264 266 268 270 272 274 276 278 280 282 284 286 289 290 292 293 294 296 298 299 299
235 236 236 236 237 239 240 242 244 245 247 248 247 246 247 250 252 253 254 256 258 260 262 263 265 267 269 271 273 275 277 279 281 282 285 287 289 291 293 295 296 297 298 299
236 236 236 236 237 239 240 242 244 246 247 249 248 247 247 249 252 253 254 256 258 260 262 263 265 266 268 270 272 275 276 278 279 281 284 286 288 290 292 294 294 295 296 298
235 235 235 235 236 238 241 242 244 246 247 249 250 250 245 249 252 253 254 255 257 259 261 263 264 265 267 269 271 274 276 277 279 281 283 285 287 289 291 292 293 294 295 297
235 235 235 236 237 239 241 242 244 246 248 249 249 253 247 248 251 253 254 255 257 259 260 262 263 265 267 269 271 273 275 276 278 280 282 283 286 288 290 291 293 294 296 297
235 234 235 235 236 239 241 243 245 247 249 250 250 253 251 248 251 253 254 255 256 258 260 261 262 264 266 268 270 272 274 275 278 280 281 283 284 286 288 290 292 294 295 296
234 235 235 235 235 238 240 242 245 247 248 251 251 253 254 250 251 252 253 254 256 258 259 261 262 264 266 268 269 271 273 274 277 278 280 282 283 285 287 289 291 293 295 296
236 236 235 236 237 239 241 242 245 248 251 253 252 252 252 251 251 251 252 253 255 257 259 261 262 264 266 268 269 270 271 274 276 277 279 280 283 285 287 289 291 293 294 296
236 237 236 237 238 238 240 241 244 248 251 253 253 253 251 251 251 250 251 252 254 256 259 261 262 264 265 266 267 268 271 273 275 276 278 280 282 285 287 289 290 292 293 295
236 238 238 237 237 238 239 240 242 245 250 253 254 253 252 251 252 252 252 253 256 257 259 260 262 263 264 265 266 268 269 271 273 275 278 280 282 284 286 287 289 291 293 294
234 237 237 236 236 237 237 239 242 245 248 252 255 255 253 253 254 253 252 254 257 258 259 260 261 262 263 264 265 267 269 270 273 275 277 279 281 283 285 287 289 291 293 295
234 236 237 238 237 237 238 239 241 244 247 250 253 255 254 253 253 253 253 255 257 258 259 260 260 260 262 263 264 266 268 270 273 276 278 279 281 283 285 287 289 291 292 294
234 237 238 239 238 237 238 239 241 243 246 248 250 252 251 252 253 253 253 254 255 257 258 259 260 260 261 263 264 266 268 270 273 275 277 279 281 283 285 287 288 290 292 294
235 238 239 240 241 240 240 240 241 243 245 248 250 250 250 253 254 253 252 252 254 255 257 258 259 261 262 263 265 266 268 270 273 275 277 279 281 283 285 286 288 290 292 294
235 237 238 239 240 241 241 240 241 244 246 249 249 250 249 250 252 252 251 250 252 254 256 258 259 261 263 264 265 266 268 270 272 275 277 279 280 282 284 286 288 290 292 294
237 240 239 239 239 241 242 240 241 244 246 249 249 248 248 247 248 250 251 251 252 253 254 257 259 261 263 264 265 266 268 270 273 275 277 279 280 282 284 286 288 291 293 294
238 241 242 243 243 243 242 241 245 247 248 250 250 248 248 248 249 249 250 250 251 251 253 257 259 260 262 264 265 267 269 271 273 275 277 279 280 282 284 286 288 290 292 294
241 241 243 243 243 244 244 243 245 247 248 250 250 249 249 250 249 248 248 249 250 252 254 257 259 261 262 264 266 268 269 272 274 275 277 279 281 283 285 287 289 291 293 294
242 243 244 245 246 246 244 245 248 249 248 249 251 250 249 250 249 249 249 250 252 254 255 257 259 261 263 265 267 269 271 273 274 276 278 279 281 284 286 287 289 292 293 294
243 244 244 245 247 247 246 247 248 249 248 247 250 250 249 251 251 249 250 252 253 255 257 258 259 261 263 266 268 270 272 273 274 276 278 280 282 284 286 288 290 292 293 295
244 245 245 246 249 248 246 249 248 248 247 246 247 248 249 250 251 251 250 252 253 255 256 258 260 261 264 266 268 270 271 272 274 276 278 280 282 284 287 288 290 292 293 295
242 245 247 247 248 248 248 250 250 249 245 245 246 247 249 251 251 251 252 253 254 255 256 258 260 262 264 266 268 270 271 272 274 277 279 281 282 285 287 289 290 292 293 295
241 243 244 246 247 248 248 248 247 246 244 244 246 248 249 251 252 253 253 255 256 257 258 259 260 261 264 266 268 270 271 272 275 277 279 281 283 285 287 289 291 292 294 296
242 242 243 245 247 247 247 246 245 244 242 243 245 246 247 250 252 253 254 255 258 260 260 260 260 261 263 266 267 269 271 273 275 277 279 282 283 285 287 289 291 293 295 296
244 244 245 246 246 247 245 243 243 242 241 242 244 245 247 250 251 253 254 256 258 260 260 260 261 262 264 266 268 270 271 273 275 277 280 282 283 285 287 289 292 294 295 297
245 246 247 246 246 248 245 244 244 244 243 243 244 246 247 250 252 253 254 256 258 260 260 262 263 264 266 267 268 270 271 273 275 278 280 282 284 286 288 290 292 294 296 297
Height
5762 5767 5771 5778 5782 5786 5789 5791 5795 5798 5800 5802 5805 5809 5811 5811 5814 5816 5818 5818 5820 5820 5821 5821 5821 5820 5820 5820 5819 5818 5817 5816 5815 5814 5812 5811 5809 5807 5805 5803 5800 5798 5796 5793
5752 5758 5765 5769 5772 5775 5779 5783 5787 5790 5791 5793 5797 5800 5803 5804 5806 5809 5810 5811 5813 5814 5814 5814 5814 5814 5814 5813 5813 5812 5811 5810 5809 5808 5806 5804 5802 5801 5799 5796 5794 5792 5789 5787
5743 5752 5756 5759 5763 5766 5770 5775 5779 5781 5782 5784 5787 5791 5795 5796 5798 5800 5802 5804 5805 5806 5807 5807 5807 5807 5807 5806 5806 5805 5804 5803 5802 5801 5799 5798 5796 5794 5792 5790 5787 5785 5782 5780
5733 5741 5745 5749 5753 5758 5762 5767 5769 5771 5773 5775 5778 5780 5787 5788 5790 5792 5795 5796 5797 5799 5799 5800 5800 5800 5800 5800 5799 5798 5797 5796 5795 5794 5792 5791 5789 5787 5785 5783 5781 5778 5776 5773
5725 5732 5736 5740 5746 5750 5754 5757 5760 5762 5763 5766 5768 5769 5778 5780 5782 5784 5787 5788 5790 5791 5792 5792 5792 5792 5792 5792 5792 5791 5790 5789 5788 5787 5785 5784 5782 5780 5778 5776 5774 5771 5769 5766
5716 5721 5726 5731 5736 5740 5744 5748 5750 5752 5753 5755 5760 5761 5766 5772 5774 5777 5778 5780 5781 5782 5783 5784 5784 5784 5784 5784 5784 5783 5782 5781 5780 5779 5778 5776 5775 5773 5771 5768 5766 5764 5761 5758
5706 5711 5716 5722 5726 5730 5734 5739 5741 5742 5743 5746 5752 5751 5756 5764 5766 5768 5769 5771 5772 5773 5774 5775 5775 5775 5776 5776 5776 5775 5775 5774 5773 5772 5770 5769 5767 5765 5763 5761 5759 5756 5753 5751
5696 5701 5707 5712 5717 5722 5725 5729 5732 5734 5736 5738 5741 5742 5749 5754 5757 5758 5760 5762 5763 5764 5765 5766 5767 5767 5767 5768 5768 5767 5767 5766 5765 5764 5763 5761 5759 5757 5755 5753 5751 5748 5745 5742
5687 5692 5698 5703 5707 5712 5715 5718 5723 5725 5725 5728 5729 5735 5741 5744 5747 5749 5751 5753 5754 5756 5756 5757 5758 5759 5759 5759 5759 5759 5759 5758 5757 5756 5755 5753 5752 5750 5748 5745 5743 5740 5737 5734
5677 5682 5686 5691 5695 5699 5705 5709 5712 5714 5715 5717 5720 5725 5732 5736 5738 5740 5742 5744 5745 5746 5747 5748 5749 5750 5750 5750 5750 5750 5750 5749 5749 5748 5746 5745 5743 5742 5739 5737 5734 5732 5729 5725
5667 5672 5676 5680 5684 5690 5695 5699 5701 5704 5707 5709 5711 5719 5724 5727 5728 5730 5732 5733 5735 5737 5738 5738 5739 5740 5741 5741 5741 5741 5741 5741 5740 5739 5738 5736 5735 5733 5731 5728 5726 5723 5720 5717
5657 5661 5665 5670 5675 5679 5683 5688 5692 5695 5697 5700 5703 5710 5713 5717 5718 5720 5721 5723 5724 5726 5728 5729 5730 5730 5731 5732 5732 5732 5732 5732 5731 5730 5729 5728 5726 5724 5722 5720 5717 5714 5711 5707
5647 5650 5654 5658 5664 5668 5672 5677 5681 5685 5687 5688 5692 5701 5704 5706 5708 5709 5711 5713 5714 5716 5718 5719 5720 5721 5722 5722 5723 5723 5723 5723 5722 5721 5720 5718 5717 5715 5713 5710 5707 5704 5701 5698
5636 5640 5645 5649 5653 5658 5662 5667 5670 5672 5674 5679 5684 5691 5695 5697 5699 5700 5701 5703 5704 5706 5708 5709 5710 5711 5712 5713 5713 5713 5714 5713 5713 5712 5711 5709 5708 5706 5703 5700 5698 5695 5691 5688
5626 5630 5634 5639 5643 5647 5651 5656 5659 5661 5666 5670 5676 5680 5685 5687 5688 5689 5691 5693 5695 5697 5698 5700 5701 5701 5702 5703 5703 5704 5704 5704 5703 5702 5701 5700 5698 5696 5693 5690 5688 5685 5681 5678
5616 5621 5625 5628 5632 5635 5638 5644 5648 5652 5656 5660 5664 5669 5675 5675 5677 5678 5680 5682 5685 5687 5688 5689 5691 5692 5692 5693 5694 5694 5694 5694 5693 5692 5691 5689 5688 5685 5683 5680 5677 5674 5671 5667
5606 5611 5615 5618 5622 5622 5627 5636 5639 5643 5647 5650 5652 5661 5662 5663 5666 5668 5670 5673 5674 5676 5678 5679 5681 5682 5683 5683 5684 5684 5684 5684 5683 5682 5681 5679 5677 5675 5673 5670 5667 5664 5660 5657
5596 5600 5603 5607 5610 5611 5624 5627 5629 5632 5636 5639 5643 5648 5650 5652 5654 5656 5659 5661 5664 5666 5668 5669 5670 5671 5672 5673 5673 5673 5673 5673 5672 5671 5670 5668 5666 5664 5662 5659 5656 5653 5649 5645
5586 5589 5592 5596 5597 5601 5611 5617 5619 5621 5625 5630 5632 5636 5638 5640 5642 5646 5649 5650 5653 5655 5657 5659 5660 5661 5662 5662 5662 5663 5663 5662 5662 5661 5659 5657 5656 5654 5651 5648 5645 5642 5638 5634
5576 5579 5583 5585 5587 5592 5604 5607 5607 5609 5613 5620 5620 5624 5626 5627 5631 5637 5639 5640 5642 5644 5646 5647 5649 5650 5651 5651 5651 5652 5652 5651 5651 5649 5648 5646 5644 5642 5640 5637 5633 5630 5626 5622
5565 5567 5571 5575 5577 5583 5593 5595 5596 5599 5606 5608 5609 5612 5615 5617 5622 5626 5626 5629 5631 5633 5635 5636 5637 5639 5640 5640 5641 5641 5641 5640 5639 5638 5637 5635 5633 5631 5628 5625 5622 5618 5614 5610
5554 5557 5561 5564 5568 5577 5583 5583 5586 5590 5593 5595 5597 5600 5604 5607 5610 5612 5614 5617 5620 5622 5624 5625 5626 5628 5629 5629 5630 5630 5629 5629 5628 5627 5625 5623 5621 5619 5616 5613 5610 5606 5602 5598
5543 5548 5551 5555 5562 5568 5569 5572 5575 5577 5581 5583 5586 5590 5593 5596 5598 5601 5603 5606 5609 5611 5613 5614 5615 5617 5618 5618 5618 5618 5618 5617 5616 5615 5613 5611 5609 5607 5604 5601 5598 5594 5590 5585
5533 5536 5539 5543 5550 5556 5558 5560 5563 5566 5569 5572 5575 5579 5582 5584 5587 5590 5592 5595 5597 5599 5601 5603 5604 5605 5606 5606 5606 5606 5606 5605 5604 5603 5602 5600 5597 5595 5592 5589 5585 5581 5577 5572
5522 5525 5528 5532 5540 5543 5546 5549 5551 5554 5557 5560 5564 5567 5570 5573 5576 5579 5581 5584 5586 5588 5590 5591 5592 5593 5594 5594 5594 5594 5594 5593 5592 5591 5590 5588 5585 5582 5580 5576 5572 5568 5564 5559
5513 5516 5519 5524 5529 5530 5534 5537 5539 5542 5546 5549 5553 5556 5559 5562 5565 5567 5570 5573 5575 5577 5578 5579 5581 5581 5582 5582 5582 5582 5582 5581 5580 5579 5577 5575 5573 5570 5567 5563 5560 5555 5550 5545